Location: Unspecified
(48.8656°N, 0.0000°E)
Time: 00:45:27
(UTC+00:00)

Vanguard 3 - Pass Details

Date: 22 June 2019
Orbit: 508 x 3263 km, 33.3° (Epoch: 18 August)

Event Time Altitude Azimuth Distance (km) Brightness Sun altitude
Rises 12:02:17 0° 235° (SW) 6,022 11.8 64.6°
Reaches altitude 10° 12:07:41 10° 225° (SW) 4,501 11.4 64.5°
Maximum altitude 12:16:15 25° 177° (S) 2,585 10.6 64.4°
Drops below altitude 10° 12:21:57 10° 125° (SE) 2,893 10.3 64.3°
Sets 12:24:35 0° 111° (ESE) 3,539 10.5 64.2°
